Flag for Iran Weather past 2 weeks in Esfahãn, Iran

Now
75 °F

Haze.


Feels Like: 76 °F
Forecast: 57 / 95 °F
Wind: 9 mph from Northwest

Location: Esfahan

Current Time: Aug 5, 2015 at 10:00:43 AM

Latest Report: Aug 5, 2015 at 9:00 AM


Visibility: 2 mi

Pressure: 30.07 "Hg (25.09 "Hg at 1576m altitude)

Humidity: 18%

Dew point: 28 °F

Location of EsfahãnLocation

Historic Weather in Esfahãn — Graph

°F

Esfahãn temperature yesterday

Maximum temperature yesterday: 93 °F (at 3:30 PM)
Minimum temperature yesterday: 57 °F (at 5:30 AM)
Average temperature yesterday: 77 °F

Past Weeks' High & Low Weather Summary

 TemperatureHumidityPressure
High99 °F (Jul 28, 4:00 PM)78% (Jul 21, 8:30 AM)30.12 "Hg (Jul 21, 8:30 AM)
Low54 °F (Aug 5, 6:30 AM)5% (Jul 28, 5:30 PM)29.80 "Hg (Jul 27, 6:00 PM)
Average80 °F21%29.99 "Hg
* Reported Jul 21 8:30 AM — Aug 5 8:30 AM, Esfahãn, Weather by CustomWeather, © 2015

Note: Actual official high and low records may vary slightly from our data, if they occured in-between our weather recording intervals... More about our weather records

Advertising

Esfahãn weather history for previous 24 hours

 ConditionsComfort  
Time TempWeatherWind HumidityBarometerVisibility
8:30 AM
Wed, Aug 5
72 °FHaze.7 mph19%30.07 "Hg2 mi
8:00 AM68 °FHaze.9 mph20%30.07 "Hg2 mi
7:30 AM59 °FClear.9 mph31%30.07 "Hg4 mi
7:00 AM59 °FClear.7 mph31%30.07 "Hg4 mi
6:30 AM54 °FClear.9 mph33%30.07 "Hg4 mi
6:00 AM59 °FClear.5 mph36%30.07 "Hg4 mi
5:30 AM61 °FClear.No wind34%30.07 "Hg5 mi
5:00 AM63 °FClear.5 mph27%30.04 "Hg10 mi
4:30 AM63 °FClear.7 mph27%30.04 "Hg10 mi
4:00 AM63 °FPassing clouds.5 mph27%30.04 "HgN/A
3:30 AM64 °FPassing clouds.5 mph26%30.04 "HgN/A
3:00 AM64 °FPassing clouds.5 mph26%30.04 "HgN/A
2:30 AM64 °FPassing clouds.7 mph26%30.04 "HgN/A
2:00 AM64 °FClear.9 mph21%30.04 "Hg10 mi
1:00 AM68 °FClear.7 mph18%30.07 "Hg10 mi
12:30 AM72 °FClear.7 mph14%30.07 "Hg10 mi
12:00 AM75 °FClear.5 mph13%30.07 "Hg10 mi
11:30 PM
Tue, Aug 4
73 °FClear.5 mph15%30.07 "Hg10 mi
11:00 PM77 °FClear.5 mph13%30.07 "Hg10 mi
10:30 PM73 °FClear.7 mph15%30.07 "Hg10 mi
10:00 PM77 °FPassing clouds.7 mph13%30.04 "HgN/A
9:30 PM81 °FPassing clouds.9 mph11%30.04 "HgN/A
9:00 PM82 °FPassing clouds.9 mph11%30.04 "HgN/A
8:30 PM84 °FPassing clouds.12 mph10%30.04 "HgN/A
8:00 PM86 °FPassing clouds.14 mph11%30.01 "HgN/A
7:30 PM88 °FPassing clouds.14 mph9%30.01 "HgN/A
7:00 PM91 °FPassing clouds.9 mph8%30.01 "HgN/A
6:30 PM91 °FPassing clouds.12 mph9%30.01 "HgN/A
6:00 PM91 °FPassing clouds.7 mph9%30.01 "HgN/A
5:30 PM91 °FPassing clouds.7 mph9%30.04 "HgN/A
5:00 PM91 °FPassing clouds.12 mph10%30.04 "HgN/A
4:30 PM91 °FPassing clouds.12 mph10%30.04 "HgN/A
4:00 PM91 °FPassing clouds.7 mph9%30.04 "HgN/A
3:30 PM93 °FPassing clouds.18 mph8%30.04 "HgN/A
3:00 PM91 °FPassing clouds.12 mph10%30.04 "HgN/A
2:30 PM91 °FPassing clouds.9 mph9%30.04 "HgN/A
2:00 PM90 °FPassing clouds.5 mph10%30.07 "HgN/A
1:30 PM90 °FPassing clouds.7 mph11%30.07 "HgN/A
1:00 PM88 °FSunny.7 mph13%30.09 "Hg10 mi
12:30 PM88 °FSunny.7 mph13%30.09 "Hg10 mi
12:00 PM86 °FSunny.5 mph13%30.09 "Hg10 mi
11:30 AM86 °FClear.7 mph13%30.09 "Hg5 mi
11:00 AM84 °FHaze.7 mph15%30.12 "Hg3 mi
10:30 AM82 °FHaze.9 mph17%30.12 "Hg3 mi
10:00 AM81 °FHaze.7 mph20%30.12 "Hg2 mi
Weather by CustomWeather, © 2015

See weather overviewHow to use our weather pages